| time (UTC) | temp F | wind direction | speed MPH | gust MPH | rain 1hr in | rain 24hr in | rain mn in | humidity % | barometer mb |
| 20260508225003 | 56 | 77 | 5.0 | 10.0 | 0.00 | 0.00 | 0.00 | 62 | 1027.7 |
| 20260508224003 | 56 | 81 | 6.0 | 11.0 | 0.00 | 0.00 | 0.00 | 62 | 1027.6 |
| 20260508223024 | 56 | 68 | 4.0 | 8.0 | 0.00 | 0.00 | 0.00 | 62 | 1027.6 |
| 20260508222003 | 56 | 75 | 6.0 | 11.0 | 0.00 | 0.00 | 0.00 | 61 | 1027.4 |
| 20260508221004 | 56 | 72 | 6.0 | 12.0 | 0.00 | 0.00 | 0.00 | 60 | 1027.5 |
| 20260508220003 | 56 | 70 | 5.0 | 11.0 | 0.00 | 0.00 | 0.00 | 60 | 1027.5 |
| 20260508215003 | 57 | 72 | 7.0 | 13.0 | 0.00 | 0.00 | 0.00 | 59 | 1027.5 |
| 20260508214024 | 57 | 72 | 7.0 | 13.0 | 0.00 | 0.00 | 0.00 | 59 | 1027.4 |
| 20260508213003 | 57 | 62 | 7.0 | 15.0 | 0.00 | 0.00 | 0.00 | 58 | 1027.3 |
| 20260508212003 | 58 | 62 | 8.0 | 14.0 | 0.00 | 0.00 | 0.00 | 58 | 1027.2 |
| 20260508211024 | 58 | 57 | 8.0 | 17.0 | 0.00 | 0.00 | 0.00 | 57 | 1027.0 |
| 20260508210003 | 58 | 71 | 7.0 | 14.0 | 0.00 | 0.00 | 0.00 | 57 | 1026.9 |
| 20260508205003 | 58 | 73 | 8.0 | 14.0 | 0.00 | 0.00 | 0.00 | 56 | 1026.9 |
| 20260508204003 | 58 | 72 | 8.0 | 16.0 | 0.00 | 0.00 | 0.00 | 56 | 1026.8 |
| 20260508203024 | 59 | 80 | 8.0 | 14.0 | 0.00 | 0.00 | 0.00 | 55 | 1026.7 |
| 20260508202003 | 59 | 76 | 9.0 | 19.0 | 0.00 | 0.00 | 0.00 | 55 | 1026.5 |
| 20260508201003 | 59 | 69 | 8.0 | 18.0 | 0.00 | 0.00 | 0.00 | 55 | 1026.4 |
| 20260508200003 | 59 | 74 | 9.0 | 15.0 | 0.00 | 0.00 | 0.00 | 54 | 1026.4 |
| 20260508195003 | 60 | 76 | 9.0 | 18.0 | 0.00 | 0.00 | 0.00 | 54 | 1026.3 |
| 20260508194025 | 60 | 75 | 11.0 | 19.0 | 0.00 | 0.00 | 0.00 | 53 | 1026.2 |
| 20260508193004 | 60 | 78 | 10.0 | 20.0 | 0.00 | 0.00 | 0.00 | 53 | 1026.1 |
| 20260508192004 | 60 | 86 | 11.0 | 22.0 | 0.00 | 0.00 | 0.00 | 53 | 1026.2 |
| 20260508191004 | 60 | 78 | 10.0 | 20.0 | 0.00 | 0.00 | 0.00 | 53 | 1026.0 |
| 20260508190025 | 60 | 77 | 9.0 | 22.0 | 0.00 | 0.00 | 0.00 | 53 | 1026.1 |
| 20260508185004 | 60 | 78 | 9.0 | 18.0 | 0.00 | 0.00 | 0.00 | 53 | 1026.2 |
| 20260508184004 | 60 | 76 | 9.0 | 16.0 | 0.00 | 0.00 | 0.00 | 53 | 1026.3 |
| 20260508183025 | 60 | 77 | 8.0 | 17.0 | 0.00 | 0.00 | 0.00 | 52 | 1026.4 |
| 20260508182004 | 61 | 76 | 8.0 | 16.0 | 0.00 | 0.00 | 0.00 | 52 | 1026.4 |
| 20260508181004 | 61 | 74 | 9.0 | 18.0 | 0.00 | 0.00 | 0.00 | 51 | 1026.3 |
| 20260508180004 | 61 | 86 | 9.0 | 17.0 | 0.00 | 0.00 | 0.00 | 51 | 1026.3 |
| 20260508175004 | 62 | 78 | 10.0 | 21.0 | 0.00 | 0.00 | 0.00 | 50 | 1026.4 |
| 20260508174004 | 62 | 82 | 11.0 | 20.0 | 0.00 | 0.00 | 0.00 | 50 | 1026.3 |
| 20260508173004 | 62 | 82 | 10.0 | 23.0 | 0.00 | 0.00 | 0.00 | 49 | 1026.1 |
| 20260508172004 | 62 | 80 | 9.0 | 18.0 | 0.00 | 0.00 | 0.00 | 49 | 1026.1 |
| 20260508171004 | 62 | 79 | 9.0 | 17.0 | 0.00 | 0.00 | 0.00 | 49 | 1026.2 |
| 20260508170025 | 63 | 81 | 9.0 | 17.0 | 0.00 | 0.00 | 0.00 | 48 | 1026.2 |
| 20260508165004 | 63 | 76 | 8.0 | 19.0 | 0.00 | 0.00 | 0.00 | 48 | 1026.2 |
| 20260508164025 | 62 | 79 | 6.0 | 13.0 | 0.00 | 0.00 | 0.00 | 48 | 1026.3 |
| 20260508163004 | 62 | 76 | 5.0 | 12.0 | 0.00 | 0.00 | 0.00 | 48 | 1026.4 |
| 20260508162004 | 63 | 80 | 4.0 | 9.0 | 0.00 | 0.00 | 0.00 | 48 | 1026.3 |
| 20260508161004 | 63 | 87 | 4.0 | 9.0 | 0.00 | 0.00 | 0.00 | 47 | 1026.2 |
| 20260508160004 | 63 | 90 | 5.0 | 12.0 | 0.00 | 0.00 | 0.00 | 46 | 1026.2 |
| 20260508155004 | 64 | 87 | 6.0 | 12.0 | 0.00 | 0.00 | 0.00 | 46 | 1026.1 |
| 20260508154004 | 64 | 89 | 6.0 | 13.0 | 0.00 | 0.00 | 0.00 | 45 | 1026.1 |
| 20260508153004 | 64 | 83 | 6.0 | 13.0 | 0.00 | 0.00 | 0.00 | 44 | 1026.1 |
| 20260508152025 | 64 | 85 | 5.0 | 11.0 | 0.00 | 0.00 | 0.00 | 44 | 1026.2 |
| 20260508151004 | 64 | 92 | 6.0 | 12.0 | 0.00 | 0.00 | 0.00 | 43 | 1026.2 |
| 20260508150005 | 64 | 92 | 6.0 | 13.0 | 0.00 | 0.00 | 0.00 | 43 | 1026.3 |
| 20260508145004 | 64 | 90 | 6.0 | 13.0 | 0.00 | 0.00 | 0.00 | 43 | 1026.3 |
| 20260508144004 | 64 | 92 | 6.0 | 15.0 | 0.00 | 0.00 | 0.00 | 44 | 1026.4 |
| 20260508143025 | 64 | 88 | 6.0 | 13.0 | 0.00 | 0.00 | 0.00 | 44 | 1026.5 |
| 20260508142004 | 64 | 95 | 6.0 | 13.0 | 0.00 | 0.00 | 0.00 | 45 | 1026.5 |
| 20260508141004 | 64 | 95 | 6.0 | 13.0 | 0.00 | 0.00 | 0.00 | 46 | 1026.5 |
| 20260508140004 | 65 | 91 | 7.0 | 15.0 | 0.00 | 0.00 | 0.00 | 46 | 1026.5 |
| 20260508135025 | 65 | 92 | 8.0 | 14.0 | 0.00 | 0.00 | 0.00 | 47 | 1026.5 |
| 20260508134004 | 65 | 102 | 7.0 | 17.0 | 0.00 | 0.00 | 0.00 | 48 | 1026.4 |
| 20260508133004 | 65 | 96 | 7.0 | 15.0 | 0.00 | 0.00 | 0.00 | 49 | 1026.4 |
| 20260508132004 | 64 | 100 | 5.0 | 11.0 | 0.00 | 0.00 | 0.00 | 50 | 1026.4 |
| 20260508131004 | 64 | 95 | 5.0 | 13.0 | 0.00 | 0.00 | 0.00 | 51 | 1026.5 |
| 20260508130004 | 64 | 93 | 4.0 | 9.0 | 0.00 | 0.00 | 0.00 | 51 | 1026.4 |
| 20260508125004 | 65 | 100 | 3.0 | 8.0 | 0.00 | 0.00 | 0.00 | 51 | 1026.3 |
| 20260508124004 | 65 | 115 | 4.0 | 9.0 | 0.00 | 0.00 | 0.00 | 50 | 1026.2 |
| 20260508123005 | 65 | 112 | 5.0 | 10.0 | 0.00 | 0.00 | 0.00 | 50 | 1026.3 |
| 20260508122025 | 65 | 116 | 5.0 | 10.0 | 0.00 | 0.00 | 0.00 | 50 | 1026.3 |
| 20260508121004 | 66 | 113 | 5.0 | 10.0 | 0.00 | 0.00 | 0.00 | 50 | 1026.2 |
| 20260508120004 | 66 | 123 | 5.0 | 12.0 | 0.00 | 0.00 | 0.00 | 49 | 1026.3 |
| 20260508115004 | 66 | 119 | 5.0 | 11.0 | 0.00 | 0.00 | 0.00 | 49 | 1026.2 |
| 20260508114025 | 66 | 124 | 6.0 | 12.0 | 0.00 | 0.00 | 0.00 | 49 | 1026.1 |
| 20260508113005 | 66 | 125 | 6.0 | 11.0 | 0.00 | 0.00 | 0.00 | 49 | 1026.1 |
| 20260508112004 | 67 | 123 | 6.0 | 13.0 | 0.00 | 0.00 | 0.00 | 48 | 1026.2 |
| 20260508111025 | 67 | 126 | 5.0 | 10.0 | 0.00 | 0.00 | 0.00 | 49 | 1026.2 |
| 20260508110004 | 67 | 125 | 5.0 | 10.0 | 0.00 | 0.00 | 0.00 | 48 | 1026.2 |
| 20260508105004 | 67 | 121 | 4.0 | 10.0 | 0.00 | 0.00 | 0.00 | 48 | 1026.3 |
| 20260508104004 | 68 | 114 | 5.0 | 10.0 | 0.00 | 0.00 | 0.00 | 47 | 1026.3 |
| 20260508103025 | 68 | 109 | 4.0 | 11.0 | 0.00 | 0.00 | 0.00 | 47 | 1026.1 |
| 20260508102025 | 68 | 123 | 5.0 | 8.0 | 0.00 | 0.00 | 0.00 | 46 | 1026.2 |
| 20260508101004 | 69 | 116 | 5.0 | 9.0 | 0.00 | 0.00 | 0.00 | 46 | 1026.1 |
| 20260508100004 | 69 | 120 | 5.0 | 11.0 | 0.00 | 0.00 | 0.00 | 46 | 1026.0 |
| 20260508095004 | 69 | 121 | 5.0 | 9.0 | 0.00 | 0.00 | 0.00 | 46 | 1026.0 |
| 20260508094004 | 70 | 122 | 7.0 | 13.0 | 0.00 | 0.00 | 0.00 | 45 | 1025.9 |
| 20260508093004 | 70 | 122 | 8.0 | 14.0 | 0.00 | 0.00 | 0.00 | 45 | 1025.8 |
| 20260508092004 | 71 | 124 | 7.0 | 15.0 | 0.00 | 0.00 | 0.00 | 45 | 1025.7 |
| 20260508091025 | 72 | 132 | 6.0 | 14.0 | 0.00 | 0.00 | 0.00 | 45 | 1025.7 |
| 20260508090004 | 72 | 117 | 6.0 | 15.0 | 0.00 | 0.00 | 0.00 | 43 | 1025.5 |
| 20260508085025 | 72 | 127 | 6.0 | 14.0 | 0.00 | 0.00 | 0.00 | 42 | 1025.5 |
| 20260508084004 | 73 | 125 | 5.0 | 12.0 | 0.00 | 0.00 | 0.00 | 42 | 1025.5 |
| 20260508083004 | 73 | 109 | 7.0 | 14.0 | 0.00 | 0.00 | 0.00 | 42 | 1025.3 |
| 20260508082004 | 73 | 110 | 7.0 | 13.0 | 0.00 | 0.00 | 0.00 | 40 | 1025.4 |
| 20260508081025 | 73 | 95 | 8.0 | 16.0 | 0.00 | 0.00 | 0.00 | 40 | 1025.4 |
| 20260508080004 | 73 | 122 | 8.0 | 17.0 | 0.00 | 0.00 | 0.00 | 41 | 1025.5 |
| 20260508075004 | 73 | 131 | 7.0 | 17.0 | 0.00 | 0.00 | 0.00 | 41 | 1025.4 |
| 20260508074004 | 73 | 106 | 7.0 | 16.0 | 0.00 | 0.00 | 0.00 | 41 | 1025.5 |
| 20260508073004 | 74 | 98 | 7.0 | 16.0 | 0.00 | 0.00 | 0.00 | 41 | 1025.4 |
| 20260508072004 | 74 | 99 | 6.0 | 14.0 | 0.00 | 0.00 | 0.00 | 40 | 1025.5 |
| 20260508071025 | 74 | 124 | 5.0 | 12.0 | 0.00 | 0.00 | 0.00 | 42 | 1025.3 |
| 20260508070004 | 74 | 108 | 7.0 | 15.0 | 0.00 | 0.00 | 0.00 | 42 | 1025.4 |
| 20260508065025 | 74 | 101 | 7.0 | 16.0 | 0.00 | 0.00 | 0.00 | 41 | 1025.5 |
| 20260508064004 | 74 | 122 | 7.0 | 14.0 | 0.00 | 0.00 | 0.00 | 43 | 1025.5 |
| 20260508063004 | 74 | 91 | 7.0 | 14.0 | 0.00 | 0.00 | 0.00 | 42 | 1025.7 |
| 20260508062003 | 74 | 105 | 6.0 | 13.0 | 0.00 | 0.00 | 0.00 | 43 | 1025.7 |
| 20260508061004 | 73 | 105 | 7.0 | 13.0 | 0.00 | 0.00 | 0.00 | 41 | 1025.9 |
| 20260508060004 | 73 | 92 | 7.0 | 13.0 | 0.00 | 0.00 | 0.00 | 42 | 1026.0 |
| 20260508055003 | 72 | 118 | 8.0 | 14.0 | 0.00 | 0.00 | 0.00 | 43 | 1026.2 |
| 20260508054004 | 73 | 100 | 7.0 | 16.0 | 0.00 | 0.00 | 0.00 | 43 | 1026.3 |
| 20260508053004 | 72 | 113 | 8.0 | 14.0 | 0.00 | 0.00 | 0.00 | 45 | 1026.4 |
| 20260508052003 | 72 | 85 | 7.0 | 15.0 | 0.00 | 0.00 | 0.00 | 45 | 1026.5 |
| 20260508051003 | 72 | 74 | 8.0 | 15.0 | 0.00 | 0.00 | 0.00 | 46 | 1026.6 |
| 20260508050004 | 72 | 80 | 8.0 | 18.0 | 0.00 | 0.00 | 0.00 | 45 | 1026.7 |
| 20260508045004 | 72 | 72 | 9.0 | 15.0 | 0.00 | 0.00 | 0.00 | 46 | 1026.9 |
| 20260508044004 | 70 | 121 | 8.0 | 20.0 | 0.00 | 0.00 | 0.00 | 47 | 1027.0 |
| 20260508043004 | 71 | 97 | 6.0 | 14.0 | 0.00 | 0.00 | 0.00 | 50 | 1027.4 |
| 20260508042003 | 70 | 106 | 7.0 | 14.0 | 0.00 | 0.00 | 0.00 | 51 | 1027.5 |
| 20260508041004 | 70 | 89 | 8.0 | 18.0 | 0.00 | 0.00 | 0.00 | 52 | 1027.7 |
| 20260508040004 | 69 | 83 | 9.0 | 17.0 | 0.00 | 0.00 | 0.00 | 52 | 1027.9 |
| 20260508035024 | 69 | 74 | 9.0 | 17.0 | 0.00 | 0.00 | 0.00 | 52 | 1028.1 |
| 20260508034003 | 68 | 75 | 10.0 | 18.0 | 0.00 | 0.00 | 0.00 | 52 | 1028.5 |
| 20260508033003 | 68 | 86 | 10.0 | 20.0 | 0.00 | 0.00 | 0.00 | 52 | 1028.7 |
| 20260508032003 | 68 | 85 | 10.0 | 20.0 | 0.00 | 0.00 | 0.00 | 53 | 1028.7 |
| 20260508031003 | 68 | 77 | 8.0 | 22.0 | 0.00 | 0.00 | 0.00 | 53 | 1028.9 |
| 20260508030004 | 68 | 65 | 10.0 | 20.0 | 0.00 | 0.00 | 0.00 | 53 | 1029.0 |
| 20260508025003 | 67 | 68 | 10.0 | 20.0 | 0.00 | 0.00 | 0.00 | 53 | 1029.0 |
| 20260508024003 | 66 | 80 | 9.0 | 18.0 | 0.00 | 0.00 | 0.00 | 56 | 1029.1 |
| 20260508023003 | 66 | 80 | 10.0 | 18.0 | 0.00 | 0.00 | 0.00 | 57 | 1029.3 |
| 20260508022003 | 65 | 87 | 9.0 | 18.0 | 0.00 | 0.00 | 0.00 | 57 | 1029.4 |
| 20260508021003 | 65 | 91 | 9.0 | 18.0 | 0.00 | 0.00 | 0.00 | 58 | 1029.5 |
| 20260508020024 | 64 | 80 | 11.0 | 19.0 | 0.00 | 0.00 | 0.00 | 58 | 1029.6 |
| 20260508015003 | 64 | 93 | 11.0 | 23.0 | 0.00 | 0.00 | 0.00 | 58 | 1029.7 |
| 20260508014003 | 64 | 86 | 12.0 | 23.0 | 0.00 | 0.00 | 0.00 | 58 | 1029.7 |
| 20260508013003 | 63 | 80 | 10.0 | 21.0 | 0.00 | 0.00 | 0.00 | 58 | 1029.8 |
| 20260508012003 | 63 | 88 | 10.0 | 21.0 | 0.00 | 0.00 | 0.00 | 59 | 1029.8 |
| 20260508011003 | 63 | 77 | 11.0 | 18.0 | 0.00 | 0.00 | 0.00 | 61 | 1030.0 |
| 20260508010004 | 62 | 81 | 9.0 | 17.0 | 0.00 | 0.00 | 0.00 | 61 | 1030.1 |
| 20260508005003 | 62 | 78 | 11.0 | 19.0 | 0.00 | 0.00 | 0.00 | 61 | 1030.2 |
| 20260508004003 | 62 | 82 | 9.0 | 17.0 | 0.00 | 0.00 | 0.00 | 62 | 1030.4 |
| 20260508003003 | 61 | 88 | 9.0 | 18.0 | 0.00 | 0.00 | 0.00 | 62 | 1030.2 |
| 20260508002003 | 61 | 90 | 9.0 | 18.0 | 0.00 | 0.00 | 0.00 | 63 | 1030.1 |
| 20260508001003 | 60 | 94 | 7.0 | 13.0 | 0.00 | 0.00 | 0.00 | 63 | 1030.1 |
| 20260508000024 | 60 | 91 | 7.0 | 15.0 | 0.00 | 0.00 | 0.00 | 64 | 1030.0 |
| 20260507235003 | 59 | 97 | 6.0 | 14.0 | 0.00 | 0.00 | 0.00 | 64 | 1030.0 |
| 20260507234003 | 59 | 89 | 6.0 | 13.0 | 0.00 | 0.00 | 0.00 | 65 | 1029.9 |
| 20260507233003 | 58 | 80 | 7.0 | 12.0 | 0.00 | 0.00 | 0.00 | 65 | 1029.8 |
| 20260507232003 | 58 | 78 | 6.0 | 12.0 | 0.00 | 0.00 | 0.00 | 66 | 1029.7 |
| 20260507231003 | 58 | 74 | 6.0 | 12.0 | 0.00 | 0.00 | 0.00 | 66 | 1029.6 |
| 20260507230003 | 57 | 78 | 6.0 | 10.0 | 0.00 | 0.00 | 0.00 | 67 | 1029.5 |